| time (UTC) | temp F | wind direction | speed knots | gust knots | rain 1hr in | rain 24hr in | rain mn in | humidity % | barometer mb |
| 20260506231409 | 42 | 348 | 1.7 | 2.6 | 0.00 | 0.00 | 0.00 | 92 | 1011.7 |
| 20260506225407 | 42 | 347 | 1.7 | 2.6 | 0.00 | 0.00 | 0.00 | 92 | 1011.7 |
| 20260506224407 | 42 | 347 | 0.9 | 1.7 | 0.00 | 0.00 | 0.00 | 92 | 1011.7 |
| 20260506223406 | 43 | 347 | 1.7 | 3.5 | 0.00 | 0.00 | 0.00 | 92 | 1011.7 |
| 20260506222407 | 43 | 331 | 1.7 | 3.5 | 0.00 | 0.00 | 0.00 | 92 | 1011.7 |
| 20260506220407 | 43 | 339 | 1.7 | 2.6 | 0.00 | 0.00 | 0.00 | 90 | 1011.6 |
| 20260506215407 | 44 | 338 | 1.7 | 3.5 | 0.00 | 0.00 | 0.00 | 90 | 1011.6 |
| 20260506214410 | 44 | 351 | 1.7 | 3.5 | 0.00 | 0.00 | 0.00 | 90 | 1011.5 |
| 20260506213410 | 44 | 340 | 1.7 | 3.5 | 0.00 | 0.00 | 0.00 | 89 | 1011.5 |
| 20260506212407 | 45 | 333 | 2.6 | 4.3 | 0.00 | 0.00 | 0.00 | 89 | 1011.4 |
| 20260506211411 | 45 | 336 | 2.6 | 4.3 | 0.00 | 0.00 | 0.00 | 88 | 1011.3 |
| 20260506210407 | 45 | 339 | 1.7 | 4.3 | 0.00 | 0.00 | 0.00 | 88 | 1011.3 |
| 20260506205407 | 46 | 333 | 1.7 | 4.3 | 0.00 | 0.00 | 0.00 | 88 | 1011.3 |
| 20260506204407 | 46 | 325 | 2.6 | 4.3 | 0.00 | 0.00 | 0.00 | 87 | 1011.3 |
| 20260506202407 | 47 | 9 | 2.6 | 5.2 | 0.00 | 0.00 | 0.00 | 85 | 1011.1 |
| 20260506201407 | 47 | 338 | 2.6 | 5.2 | 0.00 | 0.00 | 0.00 | 85 | 1011.1 |
| 20260506195408 | 48 | 5 | 3.5 | 7.0 | 0.00 | 0.00 | 0.00 | 83 | 1011.0 |
| 20260506194407 | 48 | 351 | 4.3 | 7.8 | 0.00 | 0.00 | 0.00 | 82 | 1010.9 |
| 20260506193408 | 49 | 343 | 4.3 | 7.8 | 0.00 | 0.00 | 0.00 | 82 | 1010.8 |
| 20260506192408 | 49 | 347 | 4.3 | 8.7 | 0.00 | 0.00 | 0.00 | 81 | 1010.7 |
| 20260506191408 | 49 | 355 | 4.3 | 7.8 | 0.00 | 0.00 | 0.00 | 80 | 1010.6 |
| 20260506185411 | 51 | 336 | 4.3 | 7.8 | 0.00 | 0.00 | 0.00 | 78 | 1010.3 |
| 20260506184408 | 52 | 360 | 6.1 | 8.7 | 0.00 | 0.00 | 0.00 | 77 | 1010.3 |
| 20260506183408 | 53 | 333 | 3.5 | 7.8 | 0.00 | 0.00 | 0.00 | 77 | 1010.1 |
| 20260506182408 | 53 | 24 | 2.6 | 6.1 | 0.00 | 0.00 | 0.00 | 76 | 1010.0 |
| 20260506181408 | 53 | 86 | 0.9 | 2.6 | 0.00 | 0.00 | 0.00 | 76 | 1010.0 |
| 20260506180408 | 53 | 84 | 0.9 | 2.6 | 0.00 | 0.00 | 0.00 | 74 | 1009.9 |
| 20260506174409 | 53 | 178 | 2.6 | 3.5 | 0.00 | 0.00 | 0.00 | 73 | 1009.7 |
| 20260506173408 | 53 | 127 | 1.7 | 4.3 | 0.00 | 0.00 | 0.00 | 73 | 1009.6 |
| 20260506172408 | 53 | 116 | 3.5 | 6.1 | 0.00 | 0.00 | 0.00 | 73 | 1009.6 |
| 20260506171409 | 53 | 109 | 1.7 | 5.2 | 0.00 | 0.00 | 0.00 | 72 | 1009.6 |
| 20260506170409 | 53 | 119 | 2.6 | 6.1 | 0.00 | 0.00 | 0.00 | 72 | 1009.5 |
| 20260506165409 | 53 | 86 | 2.6 | 6.1 | 0.00 | 0.00 | 0.00 | 71 | 1009.4 |
| 20260506164409 | 54 | 153 | 2.6 | 5.2 | 0.00 | 0.00 | 0.00 | 71 | 1009.3 |
| 20260506163409 | 54 | 95 | 2.6 | 4.3 | 0.00 | 0.00 | 0.00 | 70 | 1009.3 |
| 20260506162409 | 54 | 107 | 2.6 | 3.5 | 0.00 | 0.00 | 0.00 | 71 | 1009.4 |
| 20260506161412 | 54 | 146 | 2.6 | 6.1 | 0.00 | 0.00 | 0.00 | 70 | 1009.3 |
| 20260506160409 | 54 | 166 | 1.7 | 3.5 | 0.00 | 0.00 | 0.00 | 69 | 1009.2 |
| 20260506154409 | 54 | 124 | 3.5 | 6.1 | 0.00 | 0.00 | 0.00 | 67 | 1009.3 |
| 20260506153409 | 55 | 87 | 1.7 | 6.1 | 0.00 | 0.00 | 0.00 | 69 | 1009.2 |
| 20260506152409 | 55 | 96 | 4.3 | 7.0 | 0.00 | 0.00 | 0.00 | 68 | 1009.2 |
| 20260506151409 | 55 | 146 | 3.5 | 7.8 | 0.00 | 0.00 | 0.00 | 67 | 1009.1 |
| 20260506150412 | 55 | 121 | 2.6 | 5.2 | 0.00 | 0.00 | 0.00 | 71 | 1009.1 |
| 20260506145409 | 55 | 143 | 3.5 | 7.8 | 0.00 | 0.00 | 0.00 | 70 | 1009.0 |
| 20260506144410 | 55 | 146 | 3.5 | 7.0 | 0.00 | 0.00 | 0.00 | 70 | 1009.1 |
| 20260506143410 | 55 | 116 | 3.5 | 6.1 | 0.00 | 0.00 | 0.00 | 68 | 1009.1 |
| 20260506142501 | 56 | 130 | 2.6 | 6.1 | 0.00 | 0.00 | 0.00 | 68 | 1009.1 |
| 20260506142400 | 56 | 134 | 2.6 | 4.3 | 0.00 | 0.00 | 0.00 | 68 | 1009.1 |
| 20260506141401 | 56 | 103 | 3.5 | 6.1 | 0.00 | 0.00 | 0.00 | 66 | 1009.1 |
| 20260506140401 | 56 | 118 | 3.5 | 7.0 | 0.00 | 0.00 | 0.00 | 67 | 1009.0 |
| 20260506135401 | 56 | 135 | 3.5 | 7.8 | 0.00 | 0.00 | 0.00 | 69 | 1009.0 |
| 20260506134401 | 56 | 160 | 3.5 | 7.0 | 0.00 | 0.00 | 0.00 | 69 | 1009.1 |
| 20260506132404 | 55 | 151 | 1.7 | 4.3 | 0.00 | 0.00 | 0.00 | 72 | 1009.1 |
| 20260506131404 | 54 | 140 | 3.5 | 7.8 | 0.00 | 0.00 | 0.00 | 72 | 1009.1 |
| 20260506130401 | 54 | 146 | 3.5 | 6.1 | 0.00 | 0.00 | 0.00 | 73 | 1009.0 |
| 20260506125401 | 54 | 111 | 3.5 | 7.8 | 0.00 | 0.00 | 0.00 | 70 | 1009.0 |
| 20260506124401 | 55 | 113 | 3.5 | 7.8 | 0.00 | 0.00 | 0.00 | 68 | 1009.0 |
| 20260506122401 | 55 | 111 | 2.6 | 6.1 | 0.00 | 0.00 | 0.00 | 65 | 1009.0 |
| 20260506121401 | 55 | 82 | 2.6 | 4.3 | 0.00 | 0.00 | 0.00 | 62 | 1008.8 |
| 20260506120401 | 55 | 103 | 3.5 | 7.0 | 0.00 | 0.00 | 0.00 | 60 | 1008.8 |
| 20260506115401 | 55 | 92 | 2.6 | 6.1 | 0.00 | 0.00 | 0.00 | 61 | 1008.7 |
| 20260506114402 | 55 | 10 | 3.5 | 8.7 | 0.00 | 0.00 | 0.00 | 59 | 1008.8 |
| 20260506113401 | 55 | 103 | 3.5 | 7.8 | 0.00 | 0.00 | 0.00 | 60 | 1008.8 |
| 20260506104405 | 54 | 47 | 3.5 | 10.4 | 0.00 | 0.00 | 0.00 | 63 | 1008.6 |
| 20260506103403 | 53 | 53 | 3.5 | 8.7 | 0.00 | 0.00 | 0.00 | 64 | 1008.6 |
| 20260506102402 | 53 | 54 | 5.2 | 12.2 | 0.00 | 0.00 | 0.00 | 64 | 1008.6 |
| 20260506101402 | 53 | 49 | 3.5 | 9.6 | 0.00 | 0.00 | 0.00 | 65 | 1008.6 |
| 20260506095405 | 53 | 49 | 3.5 | 9.6 | 0.00 | 0.00 | 0.00 | 65 | 1008.5 |
| 20260506094405 | 53 | 75 | 2.6 | 7.8 | 0.00 | 0.00 | 0.00 | 66 | 1008.5 |
| 20260506093402 | 52 | 43 | 2.6 | 10.4 | 0.00 | 0.00 | 0.00 | 66 | 1008.5 |
| 20260506092402 | 52 | 360 | 2.6 | 7.8 | 0.00 | 0.00 | 0.00 | 67 | 1008.5 |
| 20260506091402 | 52 | 114 | 1.7 | 7.8 | 0.00 | 0.00 | 0.00 | 67 | 1008.5 |
| 20260506090402 | 52 | 17 | 4.3 | 8.7 | 0.00 | 0.00 | 0.00 | 67 | 1008.5 |
| 20260506085402 | 52 | 360 | 1.7 | 5.2 | 0.00 | 0.00 | 0.00 | 68 | 1008.4 |
| 20260506084402 | 51 | 44 | 2.6 | 10.4 | 0.00 | 0.00 | 0.00 | 67 | 1008.3 |
| 20260506083403 | 51 | 52 | 2.6 | 6.1 | 0.00 | 0.00 | 0.00 | 71 | 1008.2 |
| 20260506082403 | 51 | 57 | 1.7 | 3.5 | 0.00 | 0.00 | 0.00 | 71 | 1008.2 |
| 20260506081403 | 51 | 71 | 1.7 | 6.1 | 0.00 | 0.00 | 0.00 | 72 | 1008.1 |
| 20260506080403 | 50 | 30 | 2.6 | 9.6 | 0.00 | 0.00 | 0.00 | 75 | 1008.1 |
| 20260506072403 | 50 | 15 | 3.5 | 7.8 | 0.00 | 0.00 | 0.00 | 82 | 1007.9 |
| 20260506071403 | 50 | 309 | 3.5 | 8.7 | 0.00 | 0.00 | 0.00 | 82 | 1007.9 |
| 20260506070403 | 50 | 360 | 2.6 | 6.1 | 0.00 | 0.00 | 0.00 | 83 | 1007.9 |
| 20260506061404 | 50 | 355 | 2.6 | 7.0 | 0.00 | 0.00 | 0.00 | 82 | 1007.8 |
| 20260506051404 | 49 | 360 | 2.6 | 6.1 | 0.00 | 0.00 | 0.00 | 83 | 1007.8 |
| 20260506044404 | 50 | 360 | 2.6 | 5.2 | 0.00 | 0.00 | 0.00 | 81 | 1007.8 |
| 20260506043404 | 50 | 36 | 2.6 | 5.2 | 0.00 | 0.00 | 0.00 | 80 | 1007.8 |
| 20260506042404 | 50 | 23 | 3.5 | 7.0 | 0.00 | 0.00 | 0.00 | 79 | 1007.7 |
| 20260506041404 | 50 | 336 | 2.6 | 6.1 | 0.00 | 0.00 | 0.00 | 79 | 1007.6 |
| 20260506040404 | 50 | 43 | 3.5 | 7.8 | 0.00 | 0.00 | 0.00 | 79 | 1007.7 |
| 20260506034405 | 50 | 43 | 2.6 | 7.0 | 0.00 | 0.00 | 0.00 | 82 | 1007.8 |
| 20260506033405 | 50 | 130 | 0.9 | 6.1 | 0.00 | 0.00 | 0.00 | 84 | 1007.8 |
| 20260506032405 | 50 | 360 | 2.6 | 8.7 | 0.00 | 0.00 | 0.00 | 84 | 1007.9 |
| 20260506030408 | 50 | 9 | 2.6 | 6.1 | 0.00 | 0.00 | 0.00 | 85 | 1007.9 |
| 20260506025405 | 50 | 20 | 2.6 | 6.1 | 0.00 | 0.00 | 0.00 | 86 | 1008.0 |
| 20260506024405 | 50 | 57 | 2.6 | 5.2 | 0.00 | 0.00 | 0.00 | 86 | 1008.0 |
| 20260506023405 | 50 | 22 | 2.6 | 6.1 | 0.00 | 0.00 | 0.00 | 86 | 1008.1 |
| 20260506022405 | 50 | 17 | 2.6 | 7.0 | 0.00 | 0.00 | 0.00 | 87 | 1008.1 |
| 20260506020408 | 50 | 29 | 2.6 | 5.2 | 0.00 | 0.00 | 0.00 | 88 | 1008.2 |
| 20260506015405 | 50 | 16 | 2.6 | 6.1 | 0.00 | 0.00 | 0.00 | 88 | 1008.3 |
| 20260506012405 | 50 | 19 | 2.6 | 5.2 | 0.00 | 0.00 | 0.00 | 89 | 1008.3 |
| 20260506011405 | 50 | 9 | 2.6 | 7.0 | 0.00 | 0.00 | 0.00 | 89 | 1008.4 |
| 20260506010405 | 50 | 29 | 2.6 | 7.0 | 0.00 | 0.00 | 0.00 | 89 | 1008.4 |
| 20260506004406 | 50 | 346 | 3.5 | 6.1 | 0.00 | 0.00 | 0.00 | 88 | 1008.6 |
| 20260506003406 | 50 | 355 | 3.5 | 7.0 | 0.00 | 0.00 | 0.00 | 87 | 1008.6 |
| 20260506002406 | 50 | 360 | 2.6 | 4.3 | 0.00 | 0.00 | 0.00 | 87 | 1008.7 |
| 20260506000409 | 50 | 355 | 3.5 | 7.0 | 0.00 | 0.00 | 0.00 | 86 | 1008.8 |
| 20260505235407 | 50 | 360 | 2.6 | 8.7 | 0.00 | 0.00 | 0.00 | 86 | 1009.0 |
| 20260505234406 | 50 | 17 | 3.5 | 7.8 | 0.00 | 0.00 | 0.00 | 85 | 1009.1 |
| 20260505233409 | 50 | 5 | 2.6 | 5.2 | 0.00 | 0.00 | 0.00 | 85 | 1009.1 |
| 20260505232406 | 50 | 5 | 5.2 | 8.7 | 0.00 | 0.00 | 0.00 | 85 | 1009.0 |